M I D A S
Marine Information and Data Acquisition System
Tripno 1242 of the Zeeleeuw from 2007-03-29 05:00:32 to 2007-03-29 07:51:53
Back to CruiseResearch ActivitiesStationsMapUnderway DataData graphs

EquipmentUnitsComment
TimeDGPSUTC
LatitudeDGPSDM.mWGS84
LongitudeDGPSDM.mWGS84
TemperatureSBE03/SBE38deg celciusITS90
ConductivitySBE21S/mITS90
SalinitySBE21 Practical Salinity Units
ChlorophylAChelsea fluorimeterg/lCalibrated in Aceton
Missing or incorrect values are displayed as -999
Sea surface data collected by the RV Zeeleeuw from 2007-03-29 05:01:44 to 2007-03-29 07:56:21
Time Latitude Longitude Temperature Conductivity Salinity ChlorophylA
2007-03-29 05:02:49 51°13.614 2°56.049 16.0049 0.063135 0.358138 -2.871232
2007-03-29 05:03:49 51°13.64 2°55.953 16.0098 0.063032 0.357565 -2.871232
2007-03-29 05:04:49 51°13.682 2°55.849 16.0298 0.063032 0.357609 -2.871232
2007-03-29 05:05:49 51°13.721 2°55.759 16.051 0.063032 0.357646 -2.871232
2007-03-29 05:06:49 51°13.732 2°55.733 15.9556 0.063032 0.357698 -2.871232
2007-03-29 05:07:49 51°13.733 2°55.712 16.0682 0.063032 0.357727 -2.871232
2007-03-29 05:08:49 51°13.735 2°55.71 16.0562 0.063032 0.357771 -2.871232
2007-03-29 05:09:49 51°13.732 2°55.702 16.0879 0.063032 0.357808 -2.871232
2007-03-29 05:10:49 51°13.767 2°55.681 16.0546 0.063032 0.357845 -2.871232
2007-03-29 05:11:49 51°13.863 2°55.617 15.9847 0.063032 0.357897 -2.871232
2007-03-29 05:12:49 51°13.979 2°55.544 16.0582 0.063032 0.357941 -2.871232
2007-03-29 05:13:49 51°14.097 2°55.465 16.0481 0.063032 0.357978 -2.871232
2007-03-29 05:14:49 51°14.214 2°55.359 16.2112 0.063032 0.358022 -2.871232
2007-03-29 05:15:49 51°14.321 2°55.17 16.142 0.063032 0.358059 -2.871232
2007-03-29 05:16:50 51°14.429 2°54.899 15.8802 0.063032 0.358119 -2.871232
2007-03-29 05:17:50 51°14.546 2°54.609 15.5977 0.062929 0.357522 -2.871232
2007-03-29 05:18:49 51°14.728 2°54.44 15.6845 0.062929 0.357596 -2.871232
2007-03-29 05:19:49 51°14.912 2°54.276 15.808 0.062929 0.357655 -2.871232
2007-03-29 05:20:50 51°15.025 2°53.975 15.7949 0.062929 0.357678 -2.871232
2007-03-29 05:21:49 51°15.121 2°53.661 15.7866 0.062929 0.357737 -2.871232
2007-03-29 05:22:49 51°15.187 2°53.315 15.8113 0.062929 0.357766 -2.871232
2007-03-29 05:23:49 51°15.237 2°52.959 15.7915 0.062929 0.357825 -2.871232
2007-03-29 05:24:49 51°15.283 2°52.601 15.8332 0.062929 0.357877 -2.871232
2007-03-29 05:25:49 51°15.328 2°52.244 15.839 0.062929 0.357922 -2.871232
2007-03-29 05:26:49 51°15.375 2°51.889 15.8523 0.062929 0.357974 -2.871232
2007-03-29 05:27:49 51°15.421 2°51.535 15.861 0.062929 0.358033 -2.871232
2007-03-29 05:28:49 51°15.469 2°51.184 15.8332 0.062929 0.358062 -2.871232
2007-03-29 05:29:49 51°15.518 2°50.836 15.8685 0.062929 0.358122 -2.871232
2007-03-29 05:30:49 51°15.566 2°50.487 15.8828 0.062929 0.358174 -2.871232
2007-03-29 05:31:49 51°15.614 2°50.139 15.8266 0.062826 0.357613 -2.871232
2007-03-29 05:32:49 51°15.661 2°49.79 15.8592 0.062826 0.357665 -2.871232
2007-03-29 05:33:49 51°15.711 2°49.443 15.9076 0.062826 0.35771 -2.871232
2007-03-29 05:34:49 51°15.759 2°49.099 15.9046 0.062826 0.357754 -2.871232
2007-03-29 05:35:49 51°15.806 2°48.751 15.8627 0.062826 0.357806 -2.871232
2007-03-29 05:36:49 51°15.854 2°48.399 15.9048 0.062826 0.357858 -2.871232
2007-03-29 05:37:49 51°15.903 2°48.045 15.9172 0.062826 0.35791 -2.871232
2007-03-29 05:38:49 51°15.951 2°47.69 15.9178 0.062826 0.357962 -2.871232
2007-03-29 05:39:49 51°16.002 2°47.335 15.9171 0.062826 0.358006 -2.871232
2007-03-29 05:40:49 51°16.055 2°46.983 15.9556 0.062826 0.358058 -2.871232
2007-03-29 05:41:49 51°16.102 2°46.637 15.9082 0.062723 0.357497 -2.871232
2007-03-29 05:42:49 51°16.151 2°46.297 15.9261 0.062723 0.357557 -2.871232
2007-03-29 05:43:49 51°16.198 2°45.958 15.9219 0.062723 0.357601 -2.871232
2007-03-29 05:44:49 51°16.271 2°45.638 15.9581 0.062723 0.357653 -2.871232
2007-03-29 05:45:49 51°16.372 2°45.336 15.946 0.062723 0.357705 -2.871232
2007-03-29 05:46:49 51°16.482 2°45.04 15.9415 0.062723 0.357757 -2.871232
2007-03-29 05:47:49 51°16.6 2°44.753 15.9729 0.062723 0.357801 -2.871232
2007-03-29 05:48:49 51°16.717 2°44.458 15.9616 0.062723 0.357868 -2.871232
2007-03-29 05:49:49 51°16.833 2°44.16 15.9823 0.062723 0.357935 -2.871232
2007-03-29 05:50:49 51°16.948 2°43.862 15.9752 0.062723 0.357965 -2.871232
2007-03-29 05:51:49 51°17.066 2°43.564 16.0072 0.062723 0.358039 -2.871232
2007-03-29 05:52:49 51°17.185 2°43.268 16.0214 0.062723 0.358091 -2.871232
2007-03-29 05:53:49 51°17.305 2°42.975 15.9984 0.062723 0.358158 -2.871232
2007-03-29 05:54:49 51°17.426 2°42.683 15.9824 0.06262 0.357604 -2.871232
2007-03-29 05:55:49 51°17.549 2°42.384 16.0164 0.06262 0.357678 -2.871232
2007-03-29 05:56:49 51°17.67 2°42.088 16.0437 0.06262 0.357738 -2.871232
2007-03-29 05:57:49 51°17.786 2°41.789 16.0449 0.06262 0.357797 -2.871232
2007-03-29 05:58:49 51°17.903 2°41.49 16.0492 0.06262 0.357864 -2.871232
2007-03-29 05:59:49 51°18.019 2°41.199 16.0471 0.06262 0.357924 -2.871232
2007-03-29 06:00:49 51°18.138 2°40.908 16.0642 0.06262 0.357991 -2.871232
2007-03-29 06:01:49 51°18.26 2°40.616 16.0674 0.062517 0.357443 -2.871232
2007-03-29 06:02:49 51°18.381 2°40.321 16.0913 0.062517 0.357503 -2.871232
2007-03-29 06:03:49 51°18.504 2°40.029 16.0882 0.062517 0.35757 -2.871232
2007-03-29 06:04:49 51°18.626 2°39.738 16.0855 0.06262 0.358237 -2.871232
2007-03-29 06:05:49 51°18.747 2°39.446 16.1024 0.062517 0.357696 -2.871232
2007-03-29 06:06:49 51°18.866 2°39.152 16.1082 0.062517 0.357756 -2.871232
2007-03-29 06:07:49 51°18.981 2°38.859 16.0977 0.062517 0.357815 -2.871232
2007-03-29 06:08:49 51°19.097 2°38.566 16.0979 0.062517 0.357868 -2.871232
2007-03-29 06:09:49 51°19.219 2°38.282 16.1172 0.062517 0.35792 -2.871232
2007-03-29 06:10:49 51°19.346 2°38.002 16.13 0.062517 0.357965 -2.871232
2007-03-29 06:11:49 51°19.477 2°37.728 16.1233 0.062517 0.358039 -2.871232
2007-03-29 06:12:49 51°19.607 2°37.451 16.1402 0.062414 0.357453 -2.871232
2007-03-29 06:13:49 51°19.741 2°37.178 16.121 0.062415 0.357513 -2.871232
2007-03-29 06:14:49 51°19.84 2°36.987 16.1602 0.062415 0.357558 -2.871232
2007-03-29 06:15:49 51°19.904 2°36.931 16.2042 0.062415 0.357625 -2.871232
2007-03-29 06:16:49 51°19.937 2°36.896 16.158 0.062415 0.357662 -2.871232
2007-03-29 06:17:49 51°19.954 2°36.869 16.2084 0.062415 0.357714 -2.871232
2007-03-29 06:18:49 51°19.964 2°36.85 16.2009 0.062415 0.357759 -2.871232
2007-03-29 06:19:49 51°19.968 2°36.836 16.2047 0.062415 0.357812 -2.871232
2007-03-29 06:20:49 51°19.967 2°36.826 16.1954 0.062415 0.357864 -2.871232
2007-03-29 06:21:49 51°19.964 2°36.819 16.2237 0.062415 0.357916 -2.871232
2007-03-29 06:22:49 51°19.958 2°36.817 16.2557 0.062415 0.357969 -2.871232
2007-03-29 06:23:49 51°19.951 2°36.818 16.2366 0.062312 0.357419 -2.871232
2007-03-29 06:24:49 51°19.943 2°36.82 16.2627 0.062415 0.358081 -2.871232
2007-03-29 06:25:49 51°19.933 2°36.824 16.2743 0.062415 0.358141 -2.871232
2007-03-29 06:26:49 51°19.923 2°36.827 16.2681 0.062312 0.357583 -2.871232
2007-03-29 06:27:49 51°19.913 2°36.83 16.2909 0.062312 0.357643 -2.871232
2007-03-29 06:28:49 51°19.902 2°36.832 16.3048 0.062312 0.357696 -2.871232
2007-03-29 06:29:49 51°19.913 2°36.836 16.3267 0.062312 0.357763 -2.871232
2007-03-29 06:30:49 51°19.986 2°36.827 16.3379 0.062312 0.357823 -2.871232
2007-03-29 06:31:49 51°20.038 2°36.819 16.3233 0.062312 0.357883 -2.871232
2007-03-29 06:32:50 51°20.069 2°36.804 16.3367 0.062312 0.35795 -2.871232
2007-03-29 06:33:49 51°20.087 2°36.791 16.3616 0.062312 0.35801 -2.871232
2007-03-29 06:34:49 51°20.099 2°36.781 16.36 0.062312 0.35807 -2.871232
2007-03-29 06:35:49 51°20.103 2°36.773 16.3737 0.062312 0.35813 -2.871232
2007-03-29 06:36:49 51°20.103 2°36.769 16.3983 0.062209 0.35758 -2.871232
2007-03-29 06:37:49 51°20.099 2°36.769 16.4 0.062209 0.357625 -2.871232
2007-03-29 06:38:49 51°20.094 2°36.77 16.4178 0.062209 0.357692 -2.871232
2007-03-29 06:39:50 51°20.087 2°36.774 16.4325 0.062209 0.357744 -2.871232
2007-03-29 06:40:50 51°20.079 2°36.78 16.4423 0.062209 0.357797 -2.871232
2007-03-29 06:41:50 51°20.085 2°36.777 16.4442 0.062209 0.357872 -2.871232
2007-03-29 06:42:50 51°20.095 2°36.707 16.4676 0.062209 0.357917 -2.871232
2007-03-29 06:43:50 51°20.043 2°36.65 16.4731 0.062209 0.357962 -2.871232
2007-03-29 06:44:50 51°19.974 2°36.725 16.4693 0.062209 0.358 -2.871232
2007-03-29 06:45:50 51°19.853 2°36.949 16.4601 0.062209 0.358082 -2.871232
2007-03-29 06:46:50 51°19.735 2°37.255 16.4717 0.062209 0.358135 -2.871232
2007-03-29 06:47:50 51°19.616 2°37.565 16.4968 0.062106 0.357583 -2.871232
2007-03-29 06:48:50 51°19.495 2°37.876 16.4924 0.062106 0.357643 -2.871232
2007-03-29 06:49:50 51°19.372 2°38.183 16.5201 0.062106 0.357696 -2.871232
2007-03-29 06:50:50 51°19.252 2°38.491 16.536 0.062106 0.357756 -2.871232
2007-03-29 06:51:50 51°19.12 2°38.788 16.5524 0.062106 0.357816 -2.871232
2007-03-29 06:52:50 51°18.981 2°39.077 16.5275 0.062106 0.357884 -2.871232
2007-03-29 06:53:50 51°18.845 2°39.372 16.5565 0.062106 0.357929 -2.871232
2007-03-29 06:54:50 51°18.716 2°39.672 16.5406 0.062106 0.357997 -2.871232
2007-03-29 06:55:50 51°18.588 2°39.97 16.5615 0.062106 0.358057 -2.871232
2007-03-29 06:56:50 51°18.457 2°40.27 16.5653 0.062106 0.358132 -2.871232
2007-03-29 06:57:50 51°18.331 2°40.575 16.602 0.062003 0.357565 -2.871232
2007-03-29 06:58:50 51°18.21 2°40.882 16.6007 0.062003 0.357625 -2.871232
2007-03-29 06:59:50 51°18.081 2°41.187 16.5936 0.062003 0.3577 -2.871232
2007-03-29 07:00:50 51°17.955 2°41.491 16.6196 0.062003 0.357753 -2.871232
2007-03-29 07:01:50 51°17.828 2°41.8 16.6254 0.062003 0.357821 -2.871232
2007-03-29 07:02:50 51°17.698 2°42.104 16.6627 0.062003 0.357889 -2.871232
2007-03-29 07:03:50 51°17.567 2°42.408 16.6767 0.062003 0.357964 -2.871232
2007-03-29 07:04:50 51°17.443 2°42.716 16.6484 0.062003 0.358039 -2.871232
2007-03-29 07:05:50 51°17.32 2°43.025 16.693 0.0619 0.357479 -2.871232
2007-03-29 07:06:50 51°17.196 2°43.335 16.7055 0.0619 0.357554 -2.871232
2007-03-29 07:07:50 51°17.073 2°43.641 16.7236 0.0619 0.357637 -2.871232
2007-03-29 07:08:50 51°16.949 2°43.943 16.7221 0.0619 0.357705 -2.871232
2007-03-29 07:09:50 51°16.824 2°44.249 16.7428 0.0619 0.35778 -2.871232
2007-03-29 07:10:50 51°16.695 2°44.553 16.7558 0.0619 0.357856 -2.871232
2007-03-29 07:11:50 51°16.568 2°44.856 16.7592 0.0619 0.357939 -2.871232
2007-03-29 07:12:50 51°16.458 2°45.174 16.7422 0.061797 0.357392 -2.871232
2007-03-29 07:13:50 51°16.351 2°45.496 16.7416 0.0619 0.358075 -2.871232
2007-03-29 07:14:50 51°16.243 2°45.82 16.7659 0.061797 0.357536 -2.871232
2007-03-29 07:15:50 51°16.151 2°46.16 16.8046 0.061797 0.357611 -2.871232
2007-03-29 07:16:50 51°16.126 2°46.52 16.7919 0.061797 0.357672 -2.871232
2007-03-29 07:17:50 51°16.107 2°46.888 16.8157 0.061797 0.357747 -2.871232
2007-03-29 07:18:50 51°16.064 2°47.246 16.8375 0.061797 0.357808 -2.871232
2007-03-29 07:19:50 51°16.017 2°47.607 16.8141 0.061797 0.357884 -2.871232
2007-03-29 07:20:50 51°15.971 2°47.964 16.8422 0.061797 0.357929 -2.871232
2007-03-29 07:21:50 51°15.917 2°48.32 16.8643 0.061797 0.357997 -2.871232
2007-03-29 07:22:50 51°15.863 2°48.68 16.8594 0.061694 0.357435 -2.871232
2007-03-29 07:23:50 51°15.811 2°49.036 16.8717 0.061694 0.357503 -2.871232
2007-03-29 07:24:50 51°15.759 2°49.392 16.8738 0.061694 0.357556 -2.871232
2007-03-29 07:25:50 51°15.707 2°49.751 16.8882 0.061694 0.357616 -2.871232
2007-03-29 07:26:50 51°15.655 2°50.112 16.9219 0.061694 0.357677 -2.871232
2007-03-29 07:27:50 51°15.607 2°50.475 16.9072 0.061694 0.357737 -2.871232
2007-03-29 07:28:50 51°15.543 2°50.829 16.9418 0.061694 0.357813 -2.871232
2007-03-29 07:29:50 51°15.482 2°51.18 16.9507 0.061694 0.357881 -2.871232
2007-03-29 07:30:50 51°15.394 2°51.516 16.9611 0.061694 0.357965 -2.871232
2007-03-29 07:31:50 51°15.3 2°51.843 16.9566 0.061591 0.357424 -2.871232
2007-03-29 07:32:50 51°15.208 2°52.173 16.9665 0.061591 0.357515 -2.871232
2007-03-29 07:33:50 51°15.115 2°52.502 16.9691 0.061591 0.357606 -2.871232
2007-03-29 07:34:50 51°15.022 2°52.833 17.0022 0.061591 0.357689 -2.871232
2007-03-29 07:35:50 51°14.93 2°53.163 17.0104 0.061591 0.357788 -2.871232
2007-03-29 07:36:50 51°14.84 2°53.486 17.0168 0.061591 0.357887 -2.871232
2007-03-29 07:37:50 51°14.752 2°53.819 17.01 0.061591 0.357986 -2.871232
2007-03-29 07:38:50 51°14.68 2°54.161 17.0317 0.061488 0.357467 -2.871232
2007-03-29 07:39:50 51°14.58 2°54.482 17.0442 0.061488 0.357581 -2.871232
2007-03-29 07:40:50 51°14.474 2°54.799 17.0273 0.061488 0.35768 -2.871232
2007-03-29 07:41:50 51°14.351 2°55.101 17.0595 0.061488 0.357786 -2.871232
2007-03-29 07:42:50 51°14.211 2°55.34 17.0323 0.061488 0.3579 -2.871232
2007-03-29 07:43:50 51°14.076 2°55.456 17.0836 0.061488 0.358015 -2.871232
2007-03-29 07:44:50 51°13.952 2°55.544 17.0914 0.061386 0.357503 -2.871232
2007-03-29 07:45:50 51°13.832 2°55.631 17.1096 0.061386 0.357609 -2.871232
2007-03-29 07:46:50 51°13.736 2°55.74 17.1296 0.061386 0.357723 -2.871232
2007-03-29 07:47:50 51°13.679 2°55.849 17.1271 0.061386 0.35783 -2.871232
2007-03-29 07:48:50 51°13.635 2°55.947 17.1339 0.061386 0.357937 -2.871232
2007-03-29 07:49:50 51°13.609 2°56.032 17.1447 0.061283 0.357424 -2.871232
2007-03-29 07:50:50 51°13.602 2°56.087 17.1411 0.061386 0.358128 -2.871232
2007-03-29 07:51:50 51°13.6 2°56.096 17.1944 0.061283 0.3576 -2.871232
2007-03-29 07:52:50 51°13.6 2°56.1 17.2164 0.061283 0.357676 -2.871232
2007-03-29 07:53:51 51°13.601 2°56.1 17.2138 0.06118 0.357124 -2.871232
2007-03-29 07:54:51 51°13.601 2°56.1 17.2278 0.061283 0.357798 -2.871232
2007-03-29 07:55:51 51°13.601 2°56.1 17.2454 0.061283 0.357882 -2.871232